Home   Weather   's-Hertogenbosch   Past weeks
Flag for Netherlands

Past Weather in 's-Hertogenbosch, Netherlands — Yesterday and Last 2 Weeks

Now
50 °F

Cool.


Feels Like: 46 °F
Forecast: 68 / 38 °F
Wind: 12 mph from South

Location: Volkel

Current Time: Apr 4, 2020 at 11:29:22 am

Latest Report: Apr 4, 2020 at 10:55 am


Visibility: N/A

Pressure: 30.24 "Hg

Humidity: 47%

Dew Point: 30 °F

Location of 's-HertogenboschLocation

Past Weather in 's-Hertogenbosch — Graph

°F

's-Hertogenbosch Temperature Yesterday

Maximum temperature yesterday: 52 °F (at 1:55 pm)
Minimum temperature yesterday: 34 °F (at 11:25 pm)
Average temperature yesterday: 46 °F

High & Low Weather Summary for the Past Weeks

 TemperatureHumidityPressure
High61 °F (Mar 27, 3:55 pm)100% (Mar 31, 12:55 am)30.57 "Hg (Mar 31, 12:55 am)
Low23 °F (Mar 30, 5:55 am)22% (Mar 23, 3:25 pm)29.86 "Hg (Apr 2, 5:55 pm)
Average42 °F60%30.27 "Hg
* Reported Mar 20 8:25 am — Apr 4 9:55 am, 's-Hertogenbosch. Weather by CustomWeather, © 2020

Note: Actual official high and low records may vary slightly from our data, if they occured in-between our weather recording intervals... More about our weather records

's-Hertogenbosch Weather History for the Previous 24 Hours

Scroll right to see more
 ConditionsComfort  
Time TempWeatherWind HumidityBarometerVisibility
9:55 am
Sat, Apr 4
46 °FCool.10 mph53%30.24 "HgN/A
9:25 am45 °FQuite cool.7 mph61%30.24 "HgN/A
8:55 am41 °FQuite cool.2 mph70%30.24 "HgN/A
8:25 am37 °FHigh level clouds.3 mph75%30.21 "HgN/A
7:55 am30 °FChilly.3 mph93%30.21 "HgN/A
7:25 am28 °FChilly.2 mph93%30.21 "HgN/A
6:55 am28 °FPassing clouds.2 mph93%30.21 "HgN/A
6:25 am30 °FPassing clouds.1 mph86%30.18 "HgN/A
5:55 am28 °FPassing clouds.2 mph93%30.18 "HgN/A
5:25 am30 °FOvercast.1 mph86%30.18 "HgN/A
4:55 am30 °FOvercast.1 mph80%30.18 "HgN/A
4:25 am30 °FPassing clouds.5 mph86%30.18 "HgN/A
3:55 am28 °FPassing clouds.2 mph93%30.18 "HgN/A
3:25 am28 °FOvercast.1 mph93%30.18 "HgN/A
2:55 am30 °FPassing clouds.No wind86%30.18 "HgN/A
2:25 am32 °FChilly.1 mph87%30.18 "HgN/A
1:55 am32 °FChilly.1 mph93%30.18 "HgN/A
1:25 am32 °FChilly.1 mph80%30.15 "HgN/A
12:55 am32 °FPassing clouds.No wind87%30.15 "HgN/A
12:25 am32 °FHigh level clouds.No wind87%30.15 "HgN/A
11:55 pm
Fri, Apr 3
34 °FPassing clouds.1 mph87%30.15 "HgN/A
11:25 pm34 °FChilly.2 mph81%30.15 "HgN/A
10:55 pm36 °FChilly.1 mph81%30.15 "HgN/A
10:25 pm37 °FChilly.2 mph70%30.12 "HgN/A
9:55 pm37 °FChilly.1 mph70%30.12 "HgN/A
9:25 pm41 °FQuite cool.2 mph61%30.12 "HgN/A
8:55 pm43 °FQuite cool.3 mph57%30.12 "HgN/A
8:25 pm45 °FQuite cool.3 mph53%30.09 "HgN/A
7:55 pm46 °FPassing clouds.6 mph50%30.09 "HgN/A
7:25 pm48 °FCool.8 mph43%30.09 "HgN/A
6:55 pm48 °FPassing clouds.8 mph50%30.07 "HgN/A
6:25 pm48 °FBroken clouds.9 mph54%30.07 "HgN/A
5:55 pm48 °FMostly cloudy.8 mph58%30.07 "HgN/A
5:25 pm48 °FOvercast.10 mph54%30.04 "HgN/A
4:55 pm48 °FBroken clouds.9 mph54%30.04 "HgN/A
4:25 pm50 °FOvercast.14 mph47%30.04 "HgN/A
3:55 pm50 °FOvercast.10 mph50%30.04 "HgN/A
3:25 pm50 °FOvercast.12 mph50%30.04 "HgN/A
2:55 pm48 °FCloudy.10 mph58%30.04 "HgN/A
2:25 pm50 °FOvercast.12 mph58%30.01 "HgN/A
1:55 pm52 °FMostly cloudy.16 mph47%30.01 "HgN/A
1:25 pm50 °FMore clouds than sun.9 mph58%30.01 "HgN/A
1:07 pm48 °FCloudy.9 mph62%30.01 "HgN/A
12:59 pm48 °FMostly cloudy.8 mph66%30.01 "HgN/A
12:31 pm48 °FLight rain. More clouds than sun.12 mph71%30.01 "HgN/A
11:55 am50 °FMore clouds than sun.9 mph67%29.98 "HgN/A
11:40 am50 °FMore clouds than sun.9 mph67%29.98 "HgN/A
11:11 am50 °FBroken clouds.8 mph71%29.98 "HgN/A
11:01 am50 °FBroken clouds.9 mph71%29.98 "HgN/A
Weather by CustomWeather, © 2020

See weather overview

Advertising